Content
SEND FEEDBACK

Daily
Averages
Monthly
Summary
Spain

BILBAO, SPAIN


Home > Europe > Spain
Elevation: 112 feet     Latitude: 43 18N     Longitude: 002 56W

WEATHER
 
SELECT A DAY
Number of Records: 233,530;   Date Range: 7/1/96 - 12/17/14
 
SHARE

PRINT THIS DATA

[ ← Previous Day ]
WEATHER ALMANAC - OCTOBER 1, 2013
[ Next Day → ]
[ °C ]   °F
Weather ElementAverageHighLow
Temperature79.1 °F84.2 °F (1:00 pm)73.4 °F (5:00 am)
Dewpoint62.3 °F64.4 °F (12:30 pm)60.8 °F (6:00 am)
Humidity56.6 %69 % (5:00 am)48 % (2:00 pm)
Barometer29.70 in29.77 in (9:30 pm)29.62 in (8:00 am)
Wind Speed7.3 mph12.7 mph (9:00 am)
Wind Gust27.6 mph (9:00 am)
Weather ElementAverage
Visibility6.2 mi
Wind DirectionSSE (166.1 °)

Weather ElementTotal
Precipitation---
Cooling Degree Days13.8 (Base 65)
Growing Degree Days28.8 (Base 50)
Averaged from 38 records on October 1, 2013
WEATHER CONDITIONS BREAKOUT
WIND DIRECTION BREAKOUT
WEATHER BY HOUR - OCTOBER 1, 2013
[ °C ]   °F
Local TimeTemperatureDewpointHumidityBarometerVisibilityWind DirectionWind SpeedGust SpeedPrecipitationEventsConditions
5:00 AM73.4 °F62.6 °F69 %29.65 inSouth (190°)6.9 mphClear
5:30 AM75.2 °F62.6 °F65 %29.65 inSE (140°)6.9 mphClear
6:00 AM75.2 °F60.8 °F61 %29.65 inSouth (170°)11.5 mphClear
6:30 AM75.2 °F60.8 °F61 %29.65 inSouth (170°)10.4 mphClear
7:00 AM75.2 °F60.8 °F61 %29.65 inSouth (180°)11.5 mphClear
7:30 AM77.0 °F62.6 °F61 %29.65 inSouth (170°)10.4 mphClear
8:00 AM77.0 °F62.6 °F61 %29.62 inSouth (180°)10.4 mphClear
8:30 AM77.0 °F62.6 °F61 %29.65 in6.2 miSouth (180°)6.9 mphPartly Cloudy
9:00 AM78.8 °F62.6 °F57 %29.65 in6.2 miSW (220°)12.7 mph27.6 mphPartly Cloudy
9:30 AM78.8 °F62.6 °F57 %29.65 in6.2 miSW (230°)12.7 mph27.6 mphPartly Cloudy
10:00 AM80.6 °F62.6 °F54 %29.68 in6.2 miSSW (200°)10.4 mph21.9 mphPartly Cloudy
10:30 AM80.6 °F62.6 °F54 %29.65 in6.2 miVariable6.9 mph18.4 mphPartly Cloudy
11:00 AM80.6 °F62.6 °F54 %29.68 in6.2 miVariable4.6 mphPartly Cloudy
11:30 AM80.6 °F62.6 °F54 %29.68 in6.2 miWest (260°)5.8 mphPartly Cloudy
12:00 PM82.4 °F62.6 °F51 %29.71 in6.2 miWest (260°)9.2 mphPartly Cloudy
12:30 PM82.4 °F64.4 °F54 %29.71 in6.2 miWest (280°)6.9 mphPartly Cloudy
1:00 PM84.2 °F64.4 °F51 %29.71 in6.2 miWest (280°)5.8 mphPartly Cloudy
1:30 PM82.4 °F64.4 °F54 %29.71 in6.2 miWSW (240°)9.2 mphScattered Clouds
2:00 PM84.2 °F62.6 °F48 %29.74 in6.2 miWest (260°)11.5 mphScattered Clouds
2:30 PM82.4 °F62.6 °F51 %29.71 in6.2 miWest (270°)5.8 mphPartly Cloudy
3:00 PM82.4 °F62.6 °F51 %29.71 in6.2 miSW (220°)5.8 mphPartly Cloudy
3:30 PM80.6 °F60.8 °F51 %29.71 in6.2 miWest (260°)8.1 mphPartly Cloudy
4:00 PM82.4 °F62.6 °F51 %29.71 in6.2 miWSW (240°)10.4 mphPartly Cloudy
4:30 PM82.4 °F60.8 °F48 %29.71 in6.2 miWest (260°)9.2 mphPartly Cloudy
5:00 PM82.4 °F62.6 °F51 %29.74 in6.2 miWSW (250°)8.1 mphPartly Cloudy
5:30 PM80.6 °F62.6 °F54 %29.74 in6.2 miSW (230°)11.5 mphPartly Cloudy
6:00 PM80.6 °F62.6 °F54 %29.74 in6.2 miVariable6.9 mphPartly Cloudy
6:30 PM80.6 °F62.6 °F54 %29.71 in6.2 miVariable1.2 mphPartly Cloudy
7:00 PM78.8 °F60.8 °F54 %29.74 in6.2 miSW (230°)5.8 mphPartly Cloudy
7:30 PM78.8 °F62.6 °F57 %29.74 in6.2 miSSW (210°)6.9 mphPartly Cloudy
8:00 PM78.8 °F60.8 °F54 %29.74 in6.2 miSouth (180°)4.6 mphPartly Cloudy
8:30 PM77.0 °F62.6 °F61 %29.74 in6.2 miVariable3.5 mphPartly Cloudy
9:00 PM77.0 °F60.8 °F57 %29.74 in6.2 miCalmPartly Cloudy
9:30 PM75.2 °F62.6 °F65 %29.77 in6.2 miVariable2.3 mphPartly Cloudy
10:00 PM75.2 °F60.8 °F61 %29.77 in6.2 miVariable2.3 mphPartly Cloudy
10:30 PM77.0 °F62.6 °F61 %29.77 in6.2 miEast (90°)4.6 mphPartly Cloudy
11:00 PM77.0 °F62.6 °F61 %29.77 in6.2 miSSE (150°)3.5 mphPartly Cloudy
11:30 PM75.2 °F62.6 °F65 %29.77 in6.2 miESE (110°)4.6 mphPartly Cloudy
Hourly data recorded from LEBB, located miles away from Bilbao, Spain







STORIES FROM OUR PARTNERS